TimeCDT,TemperatureF,Dew PointF,Humidity,Sea Level PressureIn,VisibilityMPH,Wind Direction,Wind SpeedMPH,Gust SpeedMPH,PrecipitationIn,Events,Conditions,WindDirDegrees,DateUTC
12:53 AM,68.0,68.0,100,29.96,10.0,Calm,Calm,-,N/A,,Clear,0,2013-06-14 05:53:00
1:53 AM,68.0,66.9,96,29.95,10.0,Calm,Calm,-,N/A,,Clear,0,2013-06-14 06:53:00
2:53 AM,66.9,66.9,100,29.93,10.0,Calm,Calm,-,N/A,,Clear,0,2013-06-14 07:53:00
3:53 AM,66.9,66.0,97,29.93,10.0,Calm,Calm,-,N/A,,Clear,0,2013-06-14 08:53:00
4:53 AM,66.0,66.0,100,29.93,10.0,Calm,Calm,-,N/A,,Clear,0,2013-06-14 09:53:00
5:53 AM,66.0,66.0,100,29.93,8.0,Calm,Calm,-,N/A,,Clear,0,2013-06-14 10:53:00
6:53 AM,68.0,68.0,100,29.95,9.0,Calm,Calm,-,N/A,,Clear,0,2013-06-14 11:53:00
7:53 AM,73.0,70.0,90,29.96,10.0,Calm,Calm,-,N/A,,Clear,0,2013-06-14 12:53:00
8:53 AM,79.0,70.0,74,29.97,10.0,SSE,8.1,-,N/A,,Clear,160,2013-06-14 13:53:00
9:53 AM,82.9,72.0,69,29.97,10.0,SSE,8.1,-,N/A,,Clear,150,2013-06-14 14:53:00
10:53 AM,86.0,73.0,65,29.96,10.0,South,8.1,-,N/A,,Clear,170,2013-06-14 15:53:00
11:53 AM,90.0,75.0,61,29.95,10.0,SSE,8.1,-,N/A,,Clear,160,2013-06-14 16:53:00
12:53 PM,91.9,75.0,58,29.93,10.0,South,6.9,-,N/A,,Clear,180,2013-06-14 17:53:00
1:53 PM,93.0,73.9,54,29.91,10.0,SSW,10.4,17.3,N/A,,Clear,210,2013-06-14 18:53:00
2:53 PM,93.9,75.0,54,29.90,10.0,South,8.1,-,N/A,,Partly Cloudy,180,2013-06-14 19:53:00
3:53 PM,93.9,73.9,52,29.88,10.0,SSW,10.4,-,N/A,,Clear,210,2013-06-14 20:53:00
4:53 PM,93.0,73.9,54,29.88,10.0,South,8.1,-,N/A,,Partly Cloudy,190,2013-06-14 21:53:00
5:53 PM,91.9,73.0,54,29.86,10.0,South,9.2,-,N/A,,Clear,170,2013-06-14 22:53:00
6:53 PM,91.0,73.0,55,29.86,10.0,SSW,8.1,-,N/A,,Clear,200,2013-06-14 23:53:00
7:53 PM,87.1,73.0,63,29.86,10.0,SSW,5.8,-,N/A,,Clear,200,2013-06-15 00:53:00
8:53 PM,84.0,73.0,69,29.87,10.0,SSW,5.8,-,N/A,,Clear,200,2013-06-15 01:53:00
9:53 PM,82.0,73.9,76,29.89,10.0,SSW,4.6,-,N/A,,Clear,200,2013-06-15 02:53:00
10:53 PM,81.0,73.0,77,29.91,10.0,SSW,4.6,-,N/A,,Clear,200,2013-06-15 03:53:00
11:53 PM,78.1,73.0,84,29.92,10.0,South,3.5,-,N/A,,Clear,180,2013-06-15 04:53:00